Regional Weather Roundup
Issued by NWS

Home | Current Version | Previous Version | Text Only | Print | Product List | Glossary Off
Versions: 1 2 3 4 5 6 7 8 9 10 11 12 13 14 15 16 17 18 19 20 21 22 23 24 25 26 27 28 29 30 31 32 33 34 35 36 37 38 39 40 41 42 43 44 45 46 47 48 49 50

000
ASUS43 KLOT 181021
RWRIL

ILLINOIS REGIONAL WEATHER ROUNDUP
NATIONAL WEATHER SERVICE CHICAGO/ROMEOVILLE IL
500 AM CDT SAT APR 18 2015

NOTE: "FAIR" INDICATES FEW OR NO CLOUDS BELOW 12,000 FEET WITH NO
SIGNIFICANT WEATHER AND/OR OBSTRUCTIONS TO VISIBILITY.

* THESE STATIONS ARE NOT UNDER NWS QUALITY CONTROL. THEY ALSO MAY NOT
  REPORT WEATHER SUCH AS PRECIPITATION OR FOG.

ILZ001-002-007-009-015-016-024-181100-
NORTHWEST ILLINOIS

CITY           SKY/WX    TMP DP  RH WIND       PRES   REMARKS
MOLINE         PTCLDY    49  44  83 CALM      30.00S
STERLING*      PTCLDY    52  45  76 E3        30.02R
SAVANNA*       PTCLDY    53  49  85 N3        30.01R
$$

ILZ003-004-008-010-011-017-018-181100-
NORTH CENTRAL ILLINOIS

CITY           SKY/WX    TMP DP  RH WIND       PRES   REMARKS
ROCKFORD       PTCLDY    52  46  80 N3        30.04S
FREEPORT*      CLEAR     50  46  87 CALM      30.04R
ROCHELLE*      CLEAR     51  46  84 CALM      30.03R
DE KALB*       CLEAR     51  45  78 CALM      30.03R
PERU*          PTCLDY    58  50  75 S6        30.02S
$$

ILZ005-006-012>014-019>023-181100-
NORTHEAST ILLINOIS

CITY           SKY/WX    TMP DP  RH WIND       PRES   REMARKS
CHICAGO-OHARE  PTCLDY    60  47  61 N3        30.00S
CHICAGO-MIDWAY PTCLDY    61  48  62 CALM      30.01S
AURORA         CLEAR     50  45  83 CALM      30.02S
LANSING*       PTCLDY    56  46  69 S3        30.01F
JOLIET*        CLEAR     53  50  87 CALM      30.01F
WAUKEGAN       PTCLDY    50  46  86 NW5       30.01R
DUPAGE AIRPORT PTCLDY    52  46  80 N3        30.01S
KANKAKEE*      CLEAR     51  48  87 CALM      30.03S
WHEELING       PTCLDY    52  46  80 CALM      30.02S
MORRIS*        CLEAR     57  48  73 CALM      29.99S
ROMEOVILLE*    CLEAR     57  48  73 CALM      30.02S
NORTHERLY ISL    N/A     63  48  58 SW9         N/A
$$

LMZ740>746-181100-
SOUTHERN LAKE MICHIGAN

STATION/POSITION SKY/WX   TEMP    WIND        PRES    VSBY  WAVE
                          AIR SEA DIR/SP/G                  HT/PER
                          (F)     (DEG/KT/KT) (MB)    (MI)  (FT/S)
HARRISON CRIB              65     260/ 13/ 14   N/A
BURNHAM HARBOR             63     260/  7/  9   N/A
CALUMET HARBOR             63     230/  5/  7   N/A
BURNS HARBOR               61     210/  8/ 11 1016.9S
MICHIGAN CITY              62     200/  6/  7   N/A
MICHIGAN CITY 6N           53 47                N/A           0
$$

ILZ025>027-034>036-040-047-049-050-058-095>099-181100-
WEST-CENTRAL ILLINOIS

CITY           SKY/WX    TMP DP  RH WIND       PRES   REMARKS
QUINCY         PTCLDY    58  52  80 E5        29.99F
GALESBURG*     PTCLDY    54  50  86 SE3       30.00F
MACOMB*        MOCLDY    52  48  86 CALM      30.02F
JACKSONVILLE*  MOCLDY    56  53  88 SE3       30.01F
PITTSFIELD*    PTCLDY    56  53  88 NE3       30.01F
$$

ILZ028>032-037-038-041>044-048-051>054-059>061-181100-
CENTRAL ILLINOIS

CITY           SKY/WX    TMP DP  RH WIND       PRES   REMARKS
PONTIAC        PTCLDY    60  53  77 SW5       30.03S
BLOOMINGTON    PTCLDY    58  53  83 SW5       30.04S
DECATUR        PTCLDY    54  49  83 SE3       30.02F
PEORIA         MOCLDY    60  52  74 CALM      30.01F
LACON*         PTCLDY    59  52  76 SE5       30.01S
LINCOLN*       MOCLDY    52  47  85 CALM      30.01S
SPRINGFIELD    MOCLDY    56  52  86 CALM      30.02S
TAYLORVILLE    PTCLDY    54  52  94 CALM      30.02S
$$

ILZ033-039-045-046-055>057-062-063-181100-
EAST-CENTRAL ILLINOIS

CITY           SKY/WX    TMP DP  RH WIND       PRES   REMARKS
CHAMPAIGN      CLEAR     56  48  74 SE3       30.02F
DANVILLE*      CLEAR     52  47  84 CALM      30.00F
RANTOUL*       CLEAR     57  52  84 CALM      30.02S
MATTOON        CLEAR     54  49  83 CALM      30.02R
PARIS*         CLEAR     51  50  96 CALM      30.03F
$$

ILZ079-100>102-181100-
SOUTHWEST ILLINOIS

CITY           SKY/WX    TMP DP  RH WIND       PRES   REMARKS
ALTON          PTCLDY    55  54  97 CALM      30.01F FOG
BELLEVILLE     PTCLDY    55  55 100 CALM      30.00S FOG
CAHOKIA*       CLEAR     56  55  97 CALM      30.00S FOG
SPARTA*        MOCLDY    57  56  97 CALM      30.02R
$$

ILZ064>066-069>071-074>076-080>082-084>086-088>090-092>094-181100-
SOUTH-CENTRAL ILLINOIS

CITY           SKY/WX    TMP DP  RH WIND       PRES   REMARKS
CARBONDALE     MOCLDY    55  54  96 CALM      30.01R FOG
CAIRO*         FOG       58  58 100 CALM      30.01S VSB 1
EFFINGHAM*     CLEAR     53  50  89 CALM      30.04R FOG
MARION         MOCLDY    55  55 100 CALM      30.01F FOG
MT. VERNON     PTCLDY    50  45  81 CALM      30.03R
CENTRALIA*     FAIR      53  51  94 CALM      30.02S FOG
SALEM*         PTCLDY    56  54  92 CALM      30.03R FOG
METROPOLIS*    CLOUDY    58  58 100 CALM      30.01R FOG
$$

ILZ067-068-072-073-078-083-087-091-181100-
SOUTHEAST ILLINOIS

CITY           SKY/WX    TMP DP  RH WIND       PRES   REMARKS
LAWRENCEVILLE  CLEAR     54  52  93 N6        30.02R
FLORA*         CLEAR     54  53  97 CALM      30.03R FOG
FAIRFIELD*     PTCLDY    54  54  98 CALM      30.01S FOG
HARRISBURG*    MOCLDY    55  55 100 CALM      30.02S FOG
ROBINSON*      CLEAR     49  49  99 CALM      30.03S FOG
CARMI*         FOG       53  51  90 CALM      30.01S VSB 1/4
$$

ABBREVIATIONS USED IN REMARKS
   TC - TEMPERATURE IN CELSIUS
  WCI - WIND CHILL INDEX
   HX - HEAT INDEX
  VSB - VISIBILITY
$$




USA.gov is the U.S. government's official web portal to all federal, state and local government web resources and services.